When you browse on this site, cookies collect data to enhance your experience and personalize the content and advertising you see.
Visit our Privacy Policy to learn more. By continuing to use the site, you agree to this use of cookies and data.
  • In Deutschland
  • Länderverzeichnis
  • Für 7 Tage
  • Wassertemperatur
  • Wetterkarte
  • Widgets
  • user-avatar
    Anmelden

    Stündliche Wetter Northampton

    Heute, 10 Dezember, Dienstag

    Zeit Temperatur Niederschläge Wind Luftdruck Luftfeuchtigkeit
    00:00 +1°C° 0 mm 3 m/S 758 mmHg 90%
    01:00 +1°C° 0 mm 3 m/S 758 mmHg 89%
    02:00 0°C° 0 mm 4 m/S 757 mmHg 88%
    03:00 +1°C° 0 mm 4 m/S 757 mmHg 87%
    04:00 +1°C° 0 mm 5 m/S 756 mmHg 86%
    05:00 +2°C° 0 mm 6 m/S 755 mmHg 85%
    06:00 +2°C° 0 mm 6 m/S 755 mmHg 84%
    07:00 +3°C° 0 mm 7 m/S 753 mmHg 85%
    08:00 +4°C° 0 mm 8 m/S 752 mmHg 85%
    09:00 +5°C° 0 mm 9 m/S 751 mmHg 86%
    10:00 +5°C° 0.4 mm 10 m/S 750 mmHg 87%
    11:00 +6°C° 0.4 mm 11 m/S 749 mmHg 87%
    12:00 +5°C° 0.4 mm 12 m/S 748 mmHg 88%
    13:00 +7°C° 0.3 mm 12 m/S 746 mmHg 88%
    14:00 +8°C° 0.3 mm 12 m/S 744 mmHg 88%
    15:00 +8°C° 0.3 mm 12 m/S 742 mmHg 88%
    16:00 +9°C° 0.5 mm 12 m/S 742 mmHg 89%
    17:00 +9°C° 0.5 mm 12 m/S 741 mmHg 89%
    18:00 +10°C° 0.5 mm 13 m/S 741 mmHg 89%
    19:00 +8°C° 1.3 mm 11 m/S 741 mmHg 87%
    20:00 +6°C° 1.3 mm 9 m/S 742 mmHg 86%
    21:00 +5°C° 1.3 mm 8 m/S 743 mmHg 85%
    22:00 +4°C° 0 mm 7 m/S 743 mmHg 84%
    23:00 +3°C° 0 mm 6 m/S 744 mmHg 83%

    Morgen, 11 Dezember, Mittwoch

    Zeit Temperatur Niederschläge Wind Luftdruck Luftfeuchtigkeit
    00:00 +3°C° 0 mm 5 m/S 745 mmHg 82%
    01:00 +2°C° 0 mm 5 m/S 745 mmHg 84%
    02:00 +2°C° 0 mm 5 m/S 745 mmHg 85%
    03:00 +3°C° 0 mm 4 m/S 745 mmHg 87%
    04:00 +1°C° 0 mm 4 m/S 745 mmHg 87%
    05:00 +1°C° 0 mm 4 m/S 745 mmHg 88%
    06:00 +1°C° 0 mm 4 m/S 745 mmHg 88%
    07:00 +1°C° 0 mm 4 m/S 744 mmHg 88%
    08:00 +3°C° 0 mm 4 m/S 744 mmHg 88%
    09:00 +2°C° 0 mm 5 m/S 744 mmHg 88%
    10:00 +3°C° 0 mm 5 m/S 743 mmHg 86%
    11:00 +3°C° 0 mm 5 m/S 743 mmHg 83%
    12:00 +5°C° 0 mm 5 m/S 742 mmHg 81%
    13:00 +5°C° 0.2 mm 5 m/S 742 mmHg 83%
    14:00 +4°C° 0.2 mm 4 m/S 741 mmHg 85%
    15:00 +4°C° 0.2 mm 4 m/S 741 mmHg 87%
    16:00 +3°C° 0.9 mm 4 m/S 741 mmHg 88%
    17:00 +3°C° 0.9 mm 4 m/S 741 mmHg 88%
    18:00 +1°C° 0.9 mm 5 m/S 742 mmHg 88%
    19:00 +1°C° 0 mm 5 m/S 742 mmHg 88%
    20:00 0°C° 0 mm 4 m/S 743 mmHg 88%
    21:00 0°C° 0 mm 4 m/S 743 mmHg 88%
    22:00 0°C° 0 mm 4 m/S 743 mmHg 88%
    23:00 -1°C° 0 mm 4 m/S 743 mmHg 88%

    übermorgen, 12 Dezember, Donnerstag

    Zeit Temperatur Niederschläge Wind Luftdruck Luftfeuchtigkeit
    00:00 -1°C° 0 mm 4 m/S 744 mmHg 88%
    01:00 -1°C° 0 mm 4 m/S 743 mmHg 89%
    02:00 -1°C° 0 mm 4 m/S 743 mmHg 89%
    03:00 -1°C° 0 mm 4 m/S 743 mmHg 90%
    04:00 -1°C° 0 mm 4 m/S 743 mmHg 89%
    05:00 -1°C° 0 mm 4 m/S 742 mmHg 88%
    06:00 -1°C° 0 mm 4 m/S 742 mmHg 87%
    07:00 0°C° 0 mm 5 m/S 740 mmHg 86%
    08:00 -1°C° 0 mm 6 m/S 739 mmHg 86%
    09:00 +1°C° 0 mm 6 m/S 738 mmHg 85%
    10:00 +1°C° 0.4 mm 8 m/S 736 mmHg 87%
    11:00 +2°C° 0.4 mm 9 m/S 733 mmHg 89%
    12:00 +3°C° 0.4 mm 10 m/S 731 mmHg 91%
    13:00 +4°C° 2.6 mm 11 m/S 728 mmHg 91%
    14:00 +6°C° 2.6 mm 11 m/S 726 mmHg 92%
    15:00 +7°C° 2.6 mm 12 m/S 723 mmHg 92%
    16:00 +6°C° 1.4 mm 11 m/S 721 mmHg 91%
    17:00 +6°C° 1.4 mm 10 m/S 720 mmHg 89%
    18:00 +6°C° 1.4 mm 10 m/S 719 mmHg 88%
    19:00 +3°C° 0.2 mm 10 m/S 719 mmHg 85%
    20:00 +2°C° 0.2 mm 9 m/S 719 mmHg 81%
    21:00 +1°C° 0.2 mm 9 m/S 719 mmHg 78%
    22:00 0°C° 0.1 mm 10 m/S 719 mmHg 83%
    23:00 0°C° 0.1 mm 10 m/S 718 mmHg 87%

    13 Dezember, Freitag

    Zeit Temperatur Niederschläge Wind Luftdruck Luftfeuchtigkeit
    00:00 -2°C° 0.1 mm 11 m/S 718 mmHg 91%
    01:00 0°C° 0.1 mm 10 m/S 717 mmHg 88%
    02:00 0°C° 0.1 mm 10 m/S 717 mmHg 86%
    03:00 0°C° 0.1 mm 9 m/S 716 mmHg 83%
    04:00 +1°C° 0.3 mm 9 m/S 716 mmHg 85%
    05:00 +2°C° 0.3 mm 8 m/S 715 mmHg 86%
    06:00 +3°C° 0.3 mm 7 m/S 715 mmHg 88%
    07:00 +4°C° 0.1 mm 8 m/S 716 mmHg 87%
    08:00 +3°C° 0.1 mm 9 m/S 717 mmHg 86%
    09:00 +3°C° 0.1 mm 10 m/S 718 mmHg 85%
    10:00 +3°C° 0.1 mm 10 m/S 719 mmHg 83%
    11:00 +4°C° 0.1 mm 11 m/S 720 mmHg 82%
    12:00 +4°C° 0.1 mm 11 m/S 720 mmHg 80%
    13:00 +3°C° 0 mm 11 m/S 721 mmHg 77%
    14:00 +3°C° 0 mm 11 m/S 722 mmHg 74%
    15:00 +3°C° 0 mm 11 m/S 723 mmHg 70%
    16:00 +2°C° 0 mm 11 m/S 723 mmHg 73%
    17:00 +2°C° 0 mm 10 m/S 724 mmHg 76%
    18:00 +2°C° 0 mm 10 m/S 724 mmHg 79%
    19:00 +1°C° 0 mm 10 m/S 725 mmHg 79%
    20:00 +1°C° 0 mm 9 m/S 725 mmHg 79%
    21:00 +1°C° 0 mm 8 m/S 726 mmHg 79%
    22:00 +1°C° 0 mm 8 m/S 726 mmHg 78%
    23:00 +1°C° 0 mm 8 m/S 727 mmHg 77%

    14 Dezember, Samstag

    Zeit Temperatur Niederschläge Wind Luftdruck Luftfeuchtigkeit
    00:00 +1°C° 0 mm 8 m/S 727 mmHg 76%
    01:00 0°C° 0 mm 8 m/S 727 mmHg 77%
    02:00 0°C° 0 mm 8 m/S 727 mmHg 77%
    03:00 0°C° 0 mm 8 m/S 728 mmHg 78%
    04:00 0°C° 0 mm 7 m/S 728 mmHg 78%
    05:00 0°C° 0 mm 7 m/S 728 mmHg 78%
    06:00 0°C° 0 mm 7 m/S 729 mmHg 77%
    07:00 0°C° 0 mm 7 m/S 729 mmHg 78%
    08:00 +1°C° 0 mm 6 m/S 729 mmHg 79%
    09:00 +1°C° 0 mm 6 m/S 730 mmHg 80%
    10:00 0°C° 0 mm 7 m/S 730 mmHg 80%
    11:00 +2°C° 0 mm 7 m/S 730 mmHg 80%
    12:00 +2°C° 0 mm 8 m/S 731 mmHg 80%
    13:00 +1°C° 0.2 mm 8 m/S 731 mmHg 76%
    14:00 +1°C° 0.2 mm 8 m/S 732 mmHg 73%
    15:00 +1°C° 0.2 mm 8 m/S 733 mmHg 70%
    16:00 0°C° 0 mm 7 m/S 733 mmHg 70%
    17:00 +1°C° 0 mm 6 m/S 733 mmHg 70%
    18:00 -1°C° 0 mm 6 m/S 734 mmHg 70%
    19:00 0°C° 0.2 mm 5 m/S 734 mmHg 77%
    20:00 0°C° 0.2 mm 4 m/S 733 mmHg 83%
    21:00 -1°C° 0.2 mm 4 m/S 733 mmHg 89%
    22:00 0°C° 1.7 mm 3 m/S 733 mmHg 91%
    23:00 0°C° 1.7 mm 3 m/S 733 mmHg 94%

    15 Dezember, Sonntag

    Zeit Temperatur Niederschläge Wind Luftdruck Luftfeuchtigkeit
    00:00 -1°C° 1.7 mm 2 m/S 732 mmHg 96%
    01:00 -1°C° 0 mm 2 m/S 733 mmHg 94%
    02:00 -2°C° 0 mm 3 m/S 733 mmHg 92%
    03:00 -3°C° 0 mm 4 m/S 733 mmHg 90%
    04:00 -2°C° 0.3 mm 4 m/S 734 mmHg 93%
    05:00 -2°C° 0.3 mm 5 m/S 734 mmHg 95%
    06:00 -2°C° 0.3 mm 6 m/S 735 mmHg 97%
    07:00 -2°C° 0 mm 6 m/S 735 mmHg 94%
    08:00 -2°C° 0 mm 6 m/S 735 mmHg 91%
    09:00 -2°C° 0 mm 6 m/S 736 mmHg 88%
    10:00 -1°C° 0.2 mm 6 m/S 736 mmHg 89%
    11:00 +1°C° 0.2 mm 6 m/S 736 mmHg 89%
    12:00 0°C° 0.2 mm 7 m/S 736 mmHg 90%
    13:00 +1°C° 0.1 mm 6 m/S 736 mmHg 89%
    14:00 +2°C° 0.1 mm 6 m/S 736 mmHg 88%
    15:00 +2°C° 0.1 mm 5 m/S 736 mmHg 87%
    16:00 +2°C° 0 mm 6 m/S 736 mmHg 88%
    17:00 +1°C° 0 mm 6 m/S 736 mmHg 88%
    18:00 +1°C° 0 mm 6 m/S 736 mmHg 88%
    19:00 +1°C° 0 mm 6 m/S 736 mmHg 89%
    20:00 +1°C° 0 mm 6 m/S 737 mmHg 89%
    21:00 +1°C° 0 mm 5 m/S 737 mmHg 90%
    22:00 +1°C° 0 mm 5 m/S 737 mmHg 89%
    23:00 +1°C° 0 mm 5 m/S 737 mmHg 89%
    Mehr zeigen